Location: Saluda
(35.2377°N, 82.3468°W)
Time: 20:09:35
(UTC+00:00)

Vanguard 3 - Pass Details

Date: 12 October 2022
Orbit: 509 x 3255 km, 33.3° (Epoch: 01 December)

Event Time Altitude Azimuth Distance (km) Brightness Sun altitude
Rises 17:39:36 0° 259° (W) 3,268 10.4 46.8°
Reaches altitude 10° 17:43:01 10° 234° (SW) 2,701 10.5 46.7°
Maximum altitude 17:46:19 14° 203° (SSW) 2,767 11.0 46.6°
Drops below altitude 10° 17:50:28 10° 174° (S) 3,562 11.4 46.4°
Sets 17:56:25 0° 154° (SSE) 5,223 11.8 46.1°
